| time (UTC) | temp F | wind direction | speed knots | gust knots | rain 1hr in | rain 24hr in | rain mn in | humidity % | barometer mb |
| 20260505124515 | 59 | 263 | 7.8 | 11.3 | 0.06 | 0.06 | 0.00 | 76 | 948.2 |
| 20260505123011 | 58 | 244 | 8.7 | 13.0 | 0.06 | 0.06 | 0.00 | 76 | 948.3 |
| 20260505121608 | 56 | 232 | 7.8 | 13.0 | 0.06 | 0.06 | 0.00 | 79 | 948.0 |
| 20260505120044 | 56 | 223 | 6.1 | 11.3 | 0.06 | 0.06 | 0.00 | 79 | 948.0 |
| 20260505114542 | 58 | 268 | 4.3 | 13.9 | 0.00 | 0.00 | 0.00 | 74 | 948.4 |
| 20260505113041 | 59 | 254 | 7.0 | 11.3 | 0.00 | 0.00 | 0.00 | 71 | 948.2 |
| 20260505111641 | 58 | 274 | 6.1 | 10.4 | 0.00 | 0.00 | 0.00 | 71 | 948.3 |
| 20260505101635 | 56 | 262 | 6.1 | 11.3 | 0.00 | 0.00 | 0.00 | 70 | 947.8 |
| 20260505100034 | 56 | 231 | 7.0 | 11.3 | 0.00 | 0.00 | 0.00 | 70 | 947.5 |
| 20260505094533 | 57 | 257 | 7.8 | 13.0 | 0.00 | 0.00 | 0.00 | 70 | 947.2 |
| 20260505093037 | 57 | 269 | 6.1 | 9.6 | 0.00 | 0.00 | 0.00 | 69 | 947.3 |
| 20260505091633 | 57 | 233 | 5.2 | 12.2 | 0.00 | 0.00 | 0.00 | 68 | 947.2 |
| 20260505090033 | 57 | 244 | 7.0 | 9.6 | 0.00 | 0.00 | 0.00 | 68 | 947.1 |
| 20260505084533 | 57 | 254 | 7.0 | 12.2 | 0.00 | 0.00 | 0.00 | 67 | 947.1 |
| 20260505083033 | 57 | 249 | 7.0 | 10.4 | 0.00 | 0.00 | 0.00 | 67 | 946.9 |
| 20260505081631 | 58 | 266 | 5.2 | 11.3 | 0.00 | 0.00 | 0.00 | 66 | 947.0 |
| 20260505080034 | 58 | 249 | 7.0 | 12.2 | 0.00 | 0.00 | 0.00 | 66 | 947.1 |
| 20260505074533 | 58 | 248 | 5.2 | 13.0 | 0.00 | 0.00 | 0.00 | 65 | 947.2 |
| 20260505073034 | 58 | 265 | 6.1 | 12.2 | 0.00 | 0.00 | 0.00 | 65 | 947.2 |
| 20260505071536 | 57 | 267 | 7.8 | 13.0 | 0.00 | 0.00 | 0.00 | 64 | 947.3 |
| 20260505070034 | 57 | 261 | 7.0 | 12.2 | 0.00 | 0.00 | 0.00 | 64 | 947.3 |
| 20260505064527 | 57 | 254 | 6.1 | 11.3 | 0.00 | 0.00 | 0.00 | 65 | 947.4 |
| 20260505063027 | 57 | 255 | 7.0 | 13.0 | 0.00 | 0.00 | 0.00 | 63 | 947.3 |
| 20260505060026 | 57 | 265 | 8.7 | 13.0 | 0.00 | 0.00 | 0.00 | 62 | 947.3 |
| 20260505054526 | 57 | 227 | 7.8 | 15.6 | 0.00 | 0.00 | 0.00 | 62 | 947.4 |
| 20260505053033 | 57 | 246 | 7.0 | 12.2 | 0.00 | 0.00 | 0.00 | 62 | 947.4 |
| 20260505051627 | 57 | 240 | 6.1 | 15.6 | 0.00 | 0.00 | 0.00 | 62 | 947.5 |
| 20260505041626 | 58 | 225 | 8.7 | 13.9 | 0.00 | 0.00 | 0.00 | 59 | 947.5 |
| 20260505040026 | 58 | 235 | 7.0 | 13.9 | 0.00 | 0.00 | 0.00 | 59 | 947.4 |
| 20260505034524 | 59 | 244 | 6.1 | 13.0 | 0.00 | 0.00 | 0.00 | 58 | 947.3 |
| 20260505033025 | 60 | 240 | 7.8 | 16.5 | 0.00 | 0.00 | 0.00 | 57 | 947.2 |
| 20260505031624 | 60 | 265 | 8.7 | 18.2 | 0.00 | 0.00 | 0.00 | 56 | 947.2 |
| 20260505030022 | 60 | 264 | 7.8 | 16.5 | 0.00 | 0.00 | 0.00 | 56 | 947.3 |
| 20260505024521 | 61 | 254 | 9.6 | 20.9 | 0.00 | 0.00 | 0.00 | 55 | 947.3 |
| 20260505023021 | 61 | 257 | 10.4 | 17.4 | 0.00 | 0.00 | 0.00 | 54 | 947.4 |
| 20260505021621 | 61 | 229 | 7.8 | 16.5 | 0.00 | 0.00 | 0.00 | 53 | 947.5 |
| 20260505020020 | 61 | 221 | 7.8 | 14.8 | 0.00 | 0.00 | 0.00 | 52 | 947.5 |
| 20260505014520 | 62 | 247 | 8.7 | 13.9 | 0.00 | 0.00 | 0.00 | 51 | 947.4 |
| 20260505013019 | 62 | 254 | 8.7 | 17.4 | 0.00 | 0.00 | 0.00 | 51 | 947.3 |
| 20260505011620 | 62 | 262 | 9.6 | 15.6 | 0.00 | 0.00 | 0.00 | 50 | 947.2 |
| 20260505010019 | 62 | 265 | 7.8 | 17.4 | 0.00 | 0.00 | 0.00 | 49 | 947.1 |
| 20260505004520 | 63 | 273 | 8.7 | 15.6 | 0.00 | 0.00 | 0.00 | 49 | 947.0 |
| 20260505003021 | 63 | 252 | 7.8 | 16.5 | 0.00 | 0.00 | 0.00 | 49 | 946.8 |
| 20260505001618 | 63 | 257 | 9.6 | 15.6 | 0.00 | 0.00 | 0.00 | 47 | 947.0 |
| 20260505000017 | 64 | 263 | 7.8 | 17.4 | 0.00 | 0.00 | 0.00 | 47 | 946.8 |
| 20260504234521 | 64 | 250 | 6.1 | 15.6 | 0.00 | 0.00 | 0.00 | 47 | 946.7 |
| 20260504233014 | 64 | 251 | 7.8 | 13.9 | 0.00 | 0.00 | 0.00 | 47 | 946.5 |
| 20260504231613 | 65 | 254 | 7.0 | 12.2 | 0.00 | 0.00 | 0.00 | 45 | 946.6 |
| 20260504230015 | 65 | 263 | 4.3 | 13.9 | 0.00 | 0.00 | 0.00 | 46 | 946.6 |
| 20260504224514 | 66 | 244 | 9.6 | 15.6 | 0.00 | 0.00 | 0.00 | 44 | 946.4 |
| 20260504223014 | 66 | 254 | 7.0 | 10.4 | 0.00 | 0.00 | 0.00 | 44 | 946.4 |
| 20260504221612 | 67 | 286 | 6.1 | 12.2 | 0.00 | 0.00 | 0.00 | 44 | 946.4 |
| 20260504220012 | 67 | 250 | 7.0 | 13.9 | 0.00 | 0.00 | 0.00 | 44 | 946.3 |
| 20260504214510 | 67 | 260 | 5.2 | 10.4 | 0.00 | 0.00 | 0.00 | 47 | 946.5 |
| 20260504213013 | 67 | 268 | 7.0 | 15.6 | 0.00 | 0.00 | 0.00 | 42 | 946.5 |
| 20260504211509 | 67 | 264 | 7.8 | 17.4 | 0.00 | 0.00 | 0.00 | 45 | 946.5 |
| 20260504210008 | 67 | 292 | 6.1 | 13.0 | 0.00 | 0.00 | 0.00 | 43 | 946.7 |
| 20260504204506 | 68 | 273 | 5.2 | 10.4 | 0.00 | 0.00 | 0.00 | 44 | 946.8 |
| 20260504203005 | 68 | 299 | 4.3 | 15.6 | 0.00 | 0.00 | 0.00 | 46 | 946.9 |
| 20260504201603 | 67 | 279 | 4.3 | 14.8 | 0.00 | 0.00 | 0.00 | 45 | 947.1 |
| 20260504200003 | 67 | 261 | 5.2 | 11.3 | 0.00 | 0.00 | 0.00 | 46 | 947.3 |
| 20260504194501 | 66 | 300 | 3.5 | 17.4 | 0.00 | 0.00 | 0.00 | 49 | 947.4 |
| 20260504193002 | 65 | 256 | 8.7 | 17.4 | 0.00 | 0.00 | 0.00 | 48 | 947.6 |
| 20260504191559 | 66 | 269 | 5.2 | 13.9 | 0.00 | 0.00 | 0.00 | 44 | 947.5 |
| 20260504190128 | 65 | 360 | 6.1 | 12.2 | 0.00 | 0.00 | 0.00 | 47 | 947.7 |
| 20260504184555 | 64 | 265 | 6.1 | 15.6 | 0.00 | 0.00 | 0.00 | 49 | 947.7 |
| 20260504183054 | 64 | 297 | 4.3 | 12.2 | 0.00 | 0.00 | 0.00 | 46 | 947.9 |
| 20260504181555 | 66 | 325 | 3.5 | 12.2 | 0.00 | 0.00 | 0.00 | 46 | 947.9 |
| 20260504180007 | 65 | 307 | 5.2 | 13.9 | 0.00 | 0.00 | 0.00 | 48 | 948.2 |
| 20260504174505 | 63 | 275 | 2.6 | 15.6 | 0.00 | 0.00 | 0.00 | 50 | 948.2 |
| 20260504173004 | 64 | 15 | 4.3 | 13.9 | 0.00 | 0.00 | 0.00 | 47 | 948.2 |
| 20260504171605 | 64 | 332 | 7.0 | 15.6 | 0.00 | 0.00 | 0.00 | 50 | 948.3 |